B12G9 ZSZS-ZSAM

Flight info

Callsign B12G9
Flight time N/A
Altitude 17700
Route HSN W67 BK W58 SHZ B221 LJG A470 ENVEN
Aircraft B60T/L-SDFGRY/C

Departure

Time 2026-04-27 11:26
Airport Zhoushan Putuoshan International Airport (ZSZS)

Arrival

Time N/A
Airport Xiamen Gaoqi International Airport (ZSAM)
Time Latitude Longitude Altitude Speed Heading
2026-04-27 11:00 29.92139 122.36076 30 ft 0 kts 86°
2026-04-27 11:12 29.92132 122.36088 34 ft 5 kts 179°
2026-04-27 11:12 29.92135 122.36013 29 ft 9 kts 276°
2026-04-27 11:13 29.92180 122.35984 29 ft 8 kts 57°
2026-04-27 11:13 29.92219 122.35970 29 ft 8 kts 335°
2026-04-27 11:13 29.92238 122.35992 31 ft 3 kts 100°
2026-04-27 11:13 29.92238 122.36027 34 ft 7 kts 84°
2026-04-27 11:14 29.92243 122.36077 38 ft 5 kts 84°
2026-04-27 11:14 29.92246 122.36111 42 ft 4 kts 82°
2026-04-27 11:14 29.92260 122.36148 44 ft 8 kts 39°
2026-04-27 11:14 29.92305 122.36194 47 ft 5 kts 72°
2026-04-27 11:15 29.92307 122.36215 48 ft 0 kts 86°
2026-04-27 11:24 29.92310 122.36248 49 ft 6 kts 86°
2026-04-27 11:25 29.92313 122.36288 49 ft 6 kts 82°
2026-04-27 11:25 29.92339 122.36340 48 ft 6 kts 13°
2026-04-27 11:25 29.92356 122.36342 48 ft 0 kts 355°
2026-04-27 11:25 29.92500 122.36327 49 ft 59 kts 355°
2026-04-27 11:26 29.93196 122.36251 98 ft 131 kts 354°
2026-04-27 11:26 29.94201 122.36124 569 ft 157 kts 352°
2026-04-27 11:26 29.95381 122.36011 997 ft 181 kts 356°
2026-04-27 11:26 29.96672 122.35892 1520 ft 189 kts 355°
2026-04-27 11:27 29.97978 122.35758 2091 ft 188 kts 354°
2026-04-27 11:27 29.99274 122.35621 2641 ft 186 kts 353°
2026-04-27 11:27 30.00550 122.35488 3199 ft 183 kts 353°
2026-04-27 11:27 30.01807 122.35354 3724 ft 181 kts 353°
2026-04-27 11:28 30.03062 122.35222 4259 ft 181 kts 352°
2026-04-27 11:28 30.04318 122.35089 4803 ft 180 kts 352°
2026-04-27 11:28 30.05141 122.35003 5147 ft 179 kts 352°
2026-04-27 11:28 30.06375 122.34873 5668 ft 177 kts 352°
2026-04-27 11:29 30.07596 122.34744 6185 ft 176 kts 352°
2026-04-27 11:29 30.09207 122.34573 6812 ft 177 kts 352°
2026-04-27 11:29 30.10447 122.34422 7194 ft 180 kts 345°
2026-04-27 11:29 30.11474 122.33658 7578 ft 180 kts 305°
2026-04-27 11:30 30.11785 122.32760 7844 ft 182 kts 279°
2026-04-27 11:30 30.11509 122.31341 8238 ft 189 kts 240°
2026-04-27 11:30 30.10574 122.30258 8655 ft 192 kts 224°
2026-04-27 11:30 30.09538 122.29281 9076 ft 192 kts 223°
2026-04-27 11:31 30.08497 122.28311 9519 ft 192 kts 223°
2026-04-27 11:31 30.07455 122.27343 9938 ft 192 kts 223°
2026-04-27 11:31 30.06412 122.26381 10316 ft 192 kts 223°
2026-04-27 11:31 30.05356 122.25447 10696 ft 191 kts 220°
2026-04-27 11:32 30.04341 122.24473 11072 ft 188 kts 230°
2026-04-27 11:32 30.03577 122.23283 11457 ft 188 kts 243°
2026-04-27 11:32 30.02930 122.21944 11914 ft 189 kts 245°
2026-04-27 11:32 30.02302 122.20632 12347 ft 190 kts 244°
2026-04-27 11:33 30.01648 122.19304 12789 ft 190 kts 244°
2026-04-27 11:33 30.00997 122.17986 13225 ft 189 kts 244°
2026-04-27 11:33 30.00467 122.16912 13582 ft 188 kts 244°
2026-04-27 11:33 30.00204 122.16383 13772 ft 187 kts 244°
2026-04-27 11:34 29.99824 122.15618 14007 ft 186 kts 244°
2026-04-27 11:34 29.99185 122.14321 14392 ft 185 kts 244°
2026-04-27 11:34 29.98550 122.13034 14782 ft 184 kts 244°
2026-04-27 11:34 29.97917 122.11754 15171 ft 184 kts 245°
2026-04-27 11:35 29.97286 122.10477 15572 ft 183 kts 245°
2026-04-27 11:35 29.96658 122.09206 15967 ft 182 kts 245°
2026-04-27 11:35 29.96032 122.07940 16360 ft 182 kts 245°
2026-04-27 11:35 29.95403 122.06669 16756 ft 182 kts 246°
2026-04-27 11:36 29.94774 122.05398 17157 ft 183 kts 246°
2026-04-27 11:36 29.94146 122.04126 17539 ft 182 kts 246°
2026-04-27 11:36 29.93499 122.02815 17651 ft 196 kts 246°
2026-04-27 11:36 29.92803 122.01401 17658 ft 209 kts 245°
2026-04-27 11:37 29.92179 121.99869 17659 ft 213 kts 259°
2026-04-27 11:37 29.92029 121.98163 17659 ft 216 kts 270°
2026-04-27 11:37 29.91977 121.96423 17656 ft 217 kts 269°
2026-04-27 11:37 29.91912 121.94676 17653 ft 218 kts 269°
2026-04-27 11:38 29.91850 121.92943 17650 ft 216 kts 269°
2026-04-27 11:38 29.91790 121.91220 17649 ft 214 kts 269°
2026-04-27 11:38 29.91730 121.89509 17645 ft 213 kts 269°
2026-04-27 11:38 29.91671 121.87828 17643 ft 213 kts 269°
2026-04-27 11:39 29.91610 121.86114 17643 ft 215 kts 269°
2026-04-27 11:39 29.91604 121.85946 17638 ft 215 kts 269°